Location: Newark
(15.4608°S, 41.1635°W)
Time: 17:02:23
(UTC+00:00)

Altair - Visible Passes

Search period start: 26 February 2021 00:00
Search period end: 08 March 2021 00:00
Orbit: 1501 x 1682 km, 47.2° (Epoch: 25 February)

Date Brightness Start Highest point End Pass type
(mag) Time Alt. Az. Time Alt. Az. Time Alt. Az.
26 Feb 8.4 07:53:15 10° NNW 08:03:00 53° NE 08:12:43 10° SE visible
27 Feb 8.5 07:28:15 10° NNW 07:37:49 48° NE 07:47:22 10° ESE visible
28 Feb 8.6 07:03:18 10° NNW 07:12:38 43° NE 07:21:58 10° ESE visible
01 Mar 8.7 06:39:56 15° N 06:47:28 38° NE 06:56:32 10° ESE visible
02 Mar 8.8 06:17:00 21° N 06:22:17 34° NE 06:31:03 10° ESE visible
02 Mar 7.8 08:16:52 10° WNW 08:26:50 59° SW 08:36:47 10° SSE visible
03 Mar 8.8 05:54:02 26° NNE 05:57:07 30° NE 06:05:30 10° ESE visible
03 Mar 7.7 07:52:07 12° NW 08:01:36 65° SW 08:11:39 10° SE visible
04 Mar 8.9 05:31:00 26° NE 05:31:57 26° NE 05:39:54 10° ESE visible
04 Mar 7.6 07:29:05 22° NW 07:36:22 72° SW 07:46:30 10° SE visible
05 Mar 9.1 05:07:55 23° ENE 05:07:55 23° ENE 05:14:12 10° ESE visible
05 Mar 7.6 07:05:59 35° NW 07:11:08 79° SW 07:21:20 10° SE visible
06 Mar 9.4 04:44:46 17° ENE 04:44:46 17° ENE 04:48:24 10° E visible
06 Mar 7.5 06:42:50 52° NW 06:45:55 86° SW 06:56:10 10° SE visible
07 Mar 9.7 04:21:33 12° E 04:21:33 12° E 04:22:27 10° E visible
07 Mar 7.4 06:19:37 75° NNW 06:20:43 86° NE 06:30:57 10° SE visible
07 Mar 8.7 08:18:20 10° W 08:26:18 26° SW 08:34:18 10° SSE visible
